Temperature
-1 -1 -1 -1 -2 -1 -2 -1 -0 -0 -1 -1 -1 -2 -3 -3 -3 -4 -4 -3 -3 -3 -3 -2 -2 -1 -1 -1 -1 -0 0 0 0 0 1 1 1 1 1 2 2 2 2 2
-2 -1 -1 -2 -2 -2 -2 -2 -2 -2 -2 -2 -2 -3 -3 -3 -4 -4 -4 -4 -4 -4 -3 -3 -3 -2 -2 -2 -1 -1 -1 -0 -0 -0 0 0 0 1 1 1 1 1 1 1
-1 -2 -2 -2 -3 -3 -3 -3 -3 -3 -2 -2 -3 -3 -4 -4 -4 -4 -4 -5 -4 -4 -4 -4 -3 -3 -2 -2 -2 -2 -1 -1 -1 -1 -0 -0 -0 0 0 0 1 1 1 1
-2 -2 -3 -2 -3 -3 -3 -3 -4 -3 -3 -3 -4 -4 -4 -4 -5 -5 -5 -5 -5 -5 -5 -4 -4 -3 -3 -3 -3 -2 -2 -2 -2 -1 -1 -1 -1 -1 -1 -0 -0 -0 0 0
-2 -2 -2 -3 -4 -4 -4 -4 -4 -4 -4 -4 -5 -4 -4 -5 -5 -5 -5 -5 -5 -5 -5 -5 -4 -4 -4 -3 -3 -3 -3 -2 -2 -2 -2 -2 -1 -1 -1 -1 -1 -1 -0 -0
-3 -2 -3 -3 -4 -5 -4 -3 -4 -5 -5 -5 -5 -3 -3 -5 -6 -5 -5 -6 -6 -6 -5 -5 -5 -4 -4 -4 -4 -4 -3 -3 -3 -3 -3 -2 -2 -2 -1 -1 -1 -1 -1 -1
-3 -3 -3 -4 -6 -5 -4 -4 -5 -6 -6 -6 -5 -5 -6 -6 -6 -6 -6 -6 -6 -6 -5 -5 -5 -5 -5 -5 -5 -4 -4 -4 -4 -3 -3 -3 -3 -2 -2 -2 -2 -2 -1 -1
-4 -4 -4 -5 -5 -5 -5 -6 -6 -6 -7 -7 -7 -7 -7 -7 -6 -6 -6 -6 -6 -6 -6 -6 -6 -5 -5 -5 -5 -5 -5 -4 -4 -4 -4 -3 -3 -3 -3 -3 -2 -2 -2 -2
-5 -4 -5 -7 -7 -7 -7 -7 -7 -7 -7 -7 -7 -7 -7 -7 -7 -7 -7 -7 -6 -6 -6 -6 -6 -6 -6 -5 -5 -5 -5 -5 -5 -4 -4 -4 -4 -4 -3 -3 -3 -3 -3 -3
-6 -6 -6 -7 -7 -7 -8 -8 -8 -8 -8 -8 -8 -8 -8 -8 -8 -7 -7 -7 -7 -7 -7 -6 -6 -6 -6 -6 -6 -5 -5 -5 -5 -5 -5 -4 -4 -4 -4 -4 -4 -3 -4 -3
-6 -6 -7 -7 -7 -8 -8 -8 -8 -8 -8 -8 -8 -8 -8 -8 -8 -8 -8 -8 -7 -7 -7 -7 -6 -6 -6 -6 -6 -6 -6 -6 -6 -5 -5 -5 -5 -5 -4 -4 -4 -4 -4 -4
-6 -7 -7 -7 -7 -8 -8 -8 -8 -8 -8 -8 -8 -8 -8 -8 -8 -8 -8 -8 -8 -8 -7 -7 -7 -7 -7 -7 -6 -6 -6 -6 -6 -6 -6 -6 -5 -5 -5 -5 -4 -5 -5 -5
-8 -8 -8 -8 -8 -8 -8 -8 -8 -9 -8 -8 -8 -8 -8 -8 -8 -8 -8 -8 -8 -8 -8 -7 -7 -7 -7 -7 -7 -7 -7 -7 -7 -7 -6 -6 -6 -6 -6 -5 -5 -5 -5 -5
-8 -8 -8 -8 -8 -8 -8 -9 -9 -9 -9 -9 -9 -9 -9 -9 -9 -9 -9 -9 -9 -8 -8 -8 -8 -7 -7 -7 -7 -7 -7 -7 -7 -7 -7 -7 -6 -7 -7 -6 -6 -5 -5 -5
-8 -8 -9 -8 -8 -8 -9 -9 -9 -9 -9 -9 -9 -9 -9 -9 -9 -9 -9 -9 -9 -9 -8 -8 -8 -8 -8 -8 -8 -8 -7 -7 -7 -7 -7 -7 -7 -7 -7 -7 -7 -6 -6 -5
-8 -8 -9 -9 -9 -9 -9 -9 -9 -9 -9 -9 -9 -9 -9 -9 -9 -9 -9 -9 -9 -9 -9 -8 -8 -8 -8 -8 -8 -8 -8 -8 -8 -8 -7 -7 -7 -7 -7 -7 -7 -7 -7 -6
-9 -9 -9 -9 -9 -9 -9 -9 -9 -9 -10 -10 -10 -10 -9 -9 -9 -9 -9 -9 -9 -9 -9 -9 -9 -9 -9 -9 -9 -9 -8 -8 -8 -8 -8 -8 -8 -8 -8 -7 -7 -7 -7 -7
-9 -9 -9 -9 -9 -9 -9 -10 -10 -10 -10 -10 -10 -10 -10 -9 -10 -10 -10 -9 -9 -9 -9 -9 -9 -9 -9 -9 -9 -9 -9 -9 -8 -8 -8 -8 -8 -8 -8 -8 -8 -7 -7 -7
-8 -9 -9 -9 -9 -10 -10 -10 -10 -10 -10 -10 -10 -10 -10 -10 -10 -10 -10 -10 -9 -9 -9 -9 -9 -9 -9 -9 -9 -9 -9 -9 -9 -8 -8 -8 -8 -8 -8 -8 -8 -8 -7 -7
-9 -9 -9 -9 -9 -10 -10 -10 -10 -10 -10 -10 -10 -10 -10 -10 -10 -10 -10 -10 -10 -10 -10 -10 -10 -10 -10 -10 -10 -9 -9 -9 -9 -9 -9 -9 -9 -9 -9 -8 -8 -8 -8 -8
-9 -9 -10 -10 -10 -10 -10 -10 -10 -10 -10 -10 -10 -10 -10 -10 -10 -10 -10 -10 -10 -10 -10 -10 -10 -10 -10 -10 -10 -10 -10 -10 -9 -9 -9 -9 -9 -9 -9 -9 -9 -8 -8 -8
-9 -10 -10 -10 -10 -10 -10 -10 -10 -10 -11 -11 -11 -11 -11 -11 -11 -11 -11 -11 -11 -11 -11 -10 -10 -10 -10 -10 -10 -10 -10 -10 -10 -10 -9 -9 -9 -9 -9 -9 -9 -9 -9 -9
-10 -10 -10 -10 -10 -10 -10 -11 -11 -11 -11 -11 -11 -11 -11 -11 -11 -11 -11 -11 -11 -11 -11 -11 -11 -11 -11 -11 -11 -11 -10 -10 -10 -10 -10 -10 -10 -9 -9 -9 -9 -9 -9 -9
-10 -10 -10 -11 -11 -11 -11 -11 -11 -11 -11 -11 -11 -11 -11 -11 -11 -11 -12 -11 -11 -11 -11 -11 -11 -11 -11 -11 -11 -11 -11 -11 -10 -10 -10 -10 -10 -10 -10 -10 -10 -10 -10 -9
-10 -10 -11 -11 -11 -11 -11 -11 -11 -11 -11 -11 -11 -12 -12 -12 -12 -12 -12 -12 -12 -12 -11 -11 -11 -11 -11 -11 -11 -11 -11 -11 -11 -11 -11 -11 -10 -10 -10 -10 -10 -10 -10 -10
-11 -11 -11 -11 -11 -11 -11 -11 -11 -11 -11 -11 -11 -12 -12 -12 -12 -12 -12 -12 -12 -12 -12 -12 -12 -12 -12 -11 -11 -11 -11 -11 -11 -11 -11 -11 -11 -11 -10 -10 -10 -10 -10 -10
-11 -11 -11 -11 -11 -12 -12 -12 -12 -12 -12 -12 -12 -12 -12 -12 -12 -12 -12 -12 -12 -12 -12 -12 -12 -12 -12 -12 -12 -11 -11 -11 -11 -11 -11 -11 -11 -11 -11 -11 -10 -10 -10 -10
Wind_Speed
2 3 2 3 4 3 1 3 3 4 4 5 6 7 7 7 7 8 8 8 7 7 7 7 6 6 6 5 5 4 4 3 4 4 4 4 3 3 3 4 4 4 4 5
2 2 2 3 5 4 3 3 3 4 5 6 6 6 7 8 8 8 8 8 8 8 7 7 7 6 6 6 5 4 4 4 4 4 4 4 3 3 3 4 4 4 5 5
2 2 2 3 4 2 1 2 3 4 5 6 6 7 8 8 8 7 8 8 9 8 7 7 6 6 6 6 5 4 4 4 4 4 4 4 4 3 3 4 4 4 5 5
2 1 1 1 2 2 2 2 4 5 6 6 7 8 7 7 7 8 8 9 9 8 8 7 6 6 6 5 5 4 4 4 5 5 4 4 4 4 4 3 3 4 4 5
1 1 3 2 2 3 3 3 4 5 7 8 8 6 4 6 8 8 8 8 8 7 7 6 6 5 5 5 5 5 5 5 5 5 5 4 4 4 4 3 3 3 3 4
1 2 3 2 3 4 3 2 4 5 7 8 7 5 6 9 10 9 9 8 7 7 6 6 5 5 4 5 5 5 6 6 6 5 5 4 4 4 4 3 3 3 3 3
2 3 3 3 5 2 2 3 6 6 7 7 6 7 9 10 10 9 9 8 7 6 6 5 5 4 4 5 6 6 6 6 6 5 5 4 4 4 3 3 2 2 3 3
2 3 2 3 2 0 3 5 6 6 7 7 8 9 9 10 9 9 9 8 7 6 6 6 5 5 5 6 7 7 6 6 6 5 5 4 3 3 3 2 2 2 2 2
3 2 2 0 2 3 4 6 6 7 7 7 8 8 9 9 9 9 8 8 7 6 6 6 6 5 5 6 7 7 6 6 6 5 4 4 3 3 3 2 2 2 2 2
3 4 5 4 4 5 5 6 7 7 7 7 7 9 9 9 8 8 8 7 7 6 6 6 6 6 6 6 6 6 6 6 5 5 5 4 3 3 2 2 2 2 2 2
4 5 6 4 5 6 7 7 7 7 7 7 7 8 8 8 8 8 7 7 6 6 6 7 7 6 6 6 5 5 5 5 5 5 4 4 4 4 4 3 3 3 2 2
4 4 4 6 5 6 6 7 7 7 7 7 7 8 8 7 7 7 7 6 6 6 6 7 7 6 6 6 5 5 5 5 4 4 4 4 4 4 6 4 5 5 4 3
4 5 5 7 6 5 5 6 7 6 7 7 7 7 7 7 7 6 6 6 6 7 7 7 6 6 6 6 5 5 5 5 4 4 4 3 3 3 4 5 5 5 4 3
5 4 5 5 5 6 6 6 6 6 6 6 6 6 6 6 6 6 6 7 6 6 6 6 6 6 6 6 6 5 5 5 4 4 3 3 3 3 3 3 4 4 4 4
5 5 5 5 5 5 5 5 5 6 6 6 6 6 6 6 6 7 6 6 6 6 6 6 6 6 6 6 5 5 5 4 4 4 3 3 3 3 3 3 3 3 3 4
5 4 4 5 6 6 5 5 5 6 6 6 6 6 6 6 6 6 6 5 5 6 6 6 6 6 6 6 5 4 4 5 5 4 3 3 3 3 3 3 3 3 3 3
3 4 4 5 5 6 5 5 6 6 6 6 7 7 6 5 5 5 5 5 5 5 6 5 6 6 6 5 5 4 4 4 5 4 3 3 3 3 3 3 3 3 3 4
6 6 5 5 5 6 6 6 5 6 6 6 6 6 5 5 5 6 6 5 5 5 5 5 5 6 5 5 4 4 3 3 3 3 3 3 3 3 3 3 3 3 3 4
4 5 5 5 5 5 5 5 6 6 6 5 5 5 4 4 5 5 5 5 5 5 6 6 7 6 5 6 5 3 3 3 3 3 3 4 4 3 3 3 3 3 3 3
4 4 4 4 4 4 5 5 5 5 5 4 4 4 4 5 5 4 4 4 4 5 6 6 6 5 5 5 5 3 3 4 4 3 3 3 3 3 3 3 3 3 3 3
4 4 4 4 4 4 4 4 4 4 5 4 3 4 4 5 4 4 4 5 5 6 6 7 5 5 5 5 5 3 3 3 4 3 3 3 3 3 3 3 3 3 3 3
4 4 4 4 4 5 4 4 4 4 4 4 4 4 4 4 4 4 4 4 5 7 6 5 5 6 7 7 4 3 3 4 4 3 3 4 3 3 3 4 3 3 4 4
4 4 4 4 4 5 4 4 3 3 4 4 4 4 4 4 4 4 4 4 4 7 6 5 6 8 8 5 4 3 4 4 4 4 4 4 4 4 4 4 4 4 4 4
4 4 4 4 3 3 4 4 4 3 4 4 4 4 4 4 4 3 4 6 7 8 5 6 8 9 8 4 4 3 4 4 4 4 4 4 4 4 4 4 4 4 4 5
3 3 3 3 3 3 4 5 4 4 4 3 4 4 3 3 3 4 5 5 7 7 5 6 8 8 6 4 4 4 4 4 4 4 4 4 4 4 4 4 4 4 5 5
3 3 3 3 3 3 3 3 3 3 4 4 4 4 4 3 4 4 4 5 6 6 5 5 5 6 4 4 4 4 4 5 5 4 4 5 5 5 4 4 6 5 5 5
2 2 2 2 3 3 3 3 3 4 4 4 5 4 4 4 4 4 5 4 4 4 4 4 4 4 4 4 4 5 4 4 4 4 5 5 5 5 5 6 5 6 6 6
Wind_Direction
290 316 355 354 339 352 349 283 263 279 293 311 322 331 336 341 345 349 352 352 351 350 349 346 345 343 340 336 335 333 332 328 322 313 304 293 281 269 255 247 244 239 237 237
285 298 5 356 342 327 315 311 289 292 299 319 325 334 336 339 339 342 344 343 342 342 340 338 336 334 333 333 330 326 323 320 318 311 308 299 289 279 265 254 247 240 236 235
286 319 293 325 322 297 311 336 296 292 300 318 325 333 333 331 333 334 337 335 333 332 329 328 328 327 326 324 322 319 316 314 313 309 307 300 295 287 276 266 255 245 239 236
289 312 259 16 30 312 269 321 327 308 309 315 321 320 319 327 336 335 332 328 326 326 326 324 325 325 322 321 324 323 318 314 313 312 306 303 297 291 285 277 262 253 247 241
257 254 262 288 348 338 283 296 341 326 325 330 330 314 322 349 342 331 326 323 321 322 321 322 325 327 325 326 330 329 323 317 312 309 303 300 299 296 288 277 272 266 259 249
234 243 256 329 341 321 258 264 11 341 326 329 334 318 322 338 333 329 329 327 327 328 328 329 330 330 329 330 333 328 321 316 313 305 298 295 295 295 292 280 274 275 272 261
244 240 264 338 324 295 233 320 337 321 316 317 311 303 312 319 324 325 327 327 330 331 335 334 333 336 333 331 327 323 320 317 315 311 305 299 300 297 293 282 274 272 273 269
233 227 257 15 24 264 305 317 309 311 315 313 307 309 315 321 323 325 327 329 333 335 336 337 338 338 333 328 325 324 323 322 321 320 317 311 312 308 299 282 265 260 259 267
230 246 339 259 274 292 304 299 304 306 307 307 307 312 318 322 323 322 325 328 330 333 332 336 338 335 328 326 327 328 328 327 326 327 326 321 313 306 306 288 260 254 251 259
257 269 280 283 290 303 306 302 304 304 304 304 305 310 315 317 321 322 324 327 330 331 331 331 333 332 327 325 328 330 328 328 330 332 332 333 329 318 309 298 274 258 255 257
257 283 297 282 293 302 304 304 306 308 306 304 304 307 312 313 317 321 323 326 328 327 322 323 326 329 332 331 330 329 331 331 331 333 331 332 334 331 320 309 292 277 267 260
256 271 271 290 305 306 301 303 306 308 308 310 306 304 309 310 314 317 320 323 326 327 327 326 328 330 334 335 334 335 335 334 332 330 328 329 334 339 349 340 338 325 302 286
266 285 275 288 299 302 298 301 305 304 303 307 309 306 306 309 314 317 320 323 323 322 323 326 329 332 335 337 335 335 334 332 330 326 325 328 332 338 343 352 359 355 340 321
267 280 281 289 298 306 304 304 305 305 307 307 307 310 311 311 314 317 318 318 318 320 324 327 330 332 335 336 336 335 334 332 329 325 325 325 326 329 333 336 339 344 343 339
275 261 268 293 303 310 313 312 313 314 317 318 316 314 313 313 312 313 316 319 319 322 325 327 328 331 335 335 334 332 331 331 332 329 329 329 330 332 332 330 331 334 338 340
295 286 277 284 294 306 314 314 309 309 313 313 314 314 311 308 308 309 314 318 319 319 321 322 323 327 331 332 332 329 331 337 335 330 331 333 333 330 328 328 328 330 333 336
283 290 290 293 295 300 301 299 297 299 303 304 305 306 308 310 311 314 316 318 313 308 313 316 319 323 326 329 329 325 327 333 339 335 331 329 326 322 322 324 326 327 328 333
258 268 275 278 285 292 299 303 302 301 299 299 302 304 307 308 307 310 315 319 319 318 320 322 324 324 327 330 328 324 325 327 331 329 325 326 325 320 319 320 321 322 324 331
277 276 280 281 284 287 294 301 304 304 304 303 302 302 304 305 304 308 314 316 316 321 328 331 329 329 326 330 329 320 322 324 325 325 324 325 328 326 323 320 319 318 320 324
298 294 293 295 298 294 296 303 309 311 313 310 308 310 315 316 315 315 317 314 311 313 315 320 323 322 323 324 327 317 317 319 322 324 325 323 322 322 321 319 317 317 318 318
301 302 301 301 303 304 303 306 310 312 318 316 310 308 309 314 318 318 320 318 322 325 322 322 325 325 324 322 320 316 319 321 320 319 319 318 317 316 316 317 316 316 316 316
298 299 300 300 302 305 309 312 312 314 321 324 320 317 318 320 322 317 303 298 312 323 326 322 323 327 330 326 323 324 322 319 316 315 315 314 312 309 308 310 310 312 312 312
291 294 297 298 296 301 311 314 313 314 313 315 317 315 312 310 312 310 313 316 318 321 323 321 327 330 335 336 331 326 322 319 316 313 311 309 306 302 300 301 303 307 308 310
291 295 295 300 306 309 312 316 317 313 308 307 308 309 308 311 313 305 300 314 323 323 322 323 330 334 338 337 330 324 321 319 316 314 312 309 304 299 297 298 300 301 302 303
284 287 293 301 303 301 303 312 319 320 320 319 318 318 310 300 298 309 314 315 321 324 322 326 332 335 335 326 324 321 318 314 313 311 310 309 305 302 301 300 300 299 300 299
282 285 287 285 286 295 304 311 316 320 322 321 322 323 321 315 309 309 312 315 317 320 321 320 322 326 324 321 319 317 315 315 315 314 310 308 304 300 299 300 300 297 296 294
284 288 295 302 303 302 303 304 307 311 313 310 312 317 320 320 318 318 317 316 318 318 317 318 317 316 316 316 315 314 312 310 308 306 304 303 302 297 295 294 292 292 292 292
Height
1516 1514 1514 1513 1513 1511 1511 1508 1505 1504 1506 1507 1507 1507 1506 1504 1502 1499 1496 1494 1493 1491 1490 1489 1488 1487 1486 1486 1485 1485 1484 1484 1484 1484 1484 1485 1485 1485 1486 1486 1487 1488 1489 1490
1517 1515 1514 1514 1514 1514 1514 1513 1512 1509 1509 1509 1509 1508 1506 1504 1502 1499 1497 1495 1493 1491 1489 1488 1486 1486 1485 1484 1483 1483 1482 1482 1481 1481 1481 1481 1482 1482 1482 1482 1483 1484 1485 1485
1512 1515 1513 1513 1518 1518 1517 1517 1515 1512 1512 1510 1509 1507 1506 1504 1502 1499 1497 1495 1492 1490 1488 1487 1485 1484 1483 1482 1481 1481 1480 1479 1479 1478 1478 1478 1478 1478 1478 1478 1479 1479 1480 1481
1515 1515 1517 1519 1520 1519 1518 1517 1517 1514 1512 1511 1510 1508 1506 1504 1502 1499 1497 1494 1492 1489 1487 1485 1483 1482 1481 1480 1479 1478 1477 1476 1476 1475 1475 1475 1475 1475 1475 1475 1475 1475 1476 1476
1516 1514 1514 1518 1520 1521 1520 1517 1517 1515 1513 1512 1510 1506 1504 1503 1501 1499 1496 1493 1491 1488 1485 1483 1481 1480 1479 1478 1476 1475 1475 1474 1473 1472 1472 1472 1471 1471 1471 1471 1471 1471 1471 1471
1519 1515 1514 1518 1522 1521 1521 1515 1517 1516 1514 1512 1510 1505 1503 1502 1500 1497 1494 1492 1489 1486 1483 1481 1479 1478 1477 1476 1474 1473 1472 1471 1470 1470 1469 1468 1467 1467 1467 1467 1467 1466 1467 1467
1520 1518 1516 1522 1522 1520 1518 1517 1518 1516 1515 1513 1511 1509 1506 1502 1499 1496 1493 1490 1487 1484 1481 1479 1478 1477 1475 1474 1472 1471 1470 1468 1467 1467 1466 1465 1464 1464 1463 1463 1463 1462 1462 1463
1522 1519 1521 1523 1521 1521 1520 1519 1517 1515 1514 1512 1509 1506 1503 1500 1497 1494 1491 1488 1485 1483 1480 1478 1477 1475 1473 1472 1471 1469 1468 1466 1465 1464 1463 1462 1461 1460 1459 1459 1459 1458 1458 1458
1525 1523 1523 1522 1522 1521 1519 1518 1515 1514 1511 1509 1507 1504 1501 1498 1495 1492 1489 1486 1484 1481 1479 1477 1476 1474 1472 1470 1469 1467 1466 1464 1462 1461 1460 1459 1458 1457 1456 1455 1455 1455 1455 1455
1526 1522 1522 1521 1520 1519 1517 1515 1513 1511 1509 1507 1504 1502 1499 1496 1493 1490 1488 1485 1482 1480 1478 1476 1474 1473 1471 1469 1467 1465 1464 1462 1460 1459 1457 1456 1455 1454 1453 1452 1452 1452 1452 1452
1524 1522 1521 1519 1518 1516 1515 1513 1511 1508 1506 1504 1502 1499 1497 1494 1491 1488 1486 1483 1481 1479 1476 1474 1473 1471 1469 1467 1466 1464 1462 1460 1458 1457 1456 1454 1453 1452 1451 1451 1450 1450 1449 1449
1520 1520 1520 1517 1516 1514 1512 1510 1508 1506 1503 1502 1500 1497 1494 1492 1489 1486 1484 1481 1479 1477 1475 1473 1471 1469 1467 1466 1464 1462 1460 1458 1457 1455 1454 1453 1451 1450 1449 1449 1448 1448 1447 1447
1520 1518 1517 1515 1513 1512 1509 1507 1505 1503 1501 1499 1497 1495 1492 1489 1487 1484 1481 1479 1477 1475 1473 1471 1469 1467 1466 1464 1462 1460 1458 1457 1455 1454 1453 1452 1450 1449 1447 1446 1445 1445 1444 1444
1517 1516 1514 1512 1511 1509 1507 1505 1503 1501 1499 1497 1494 1492 1489 1487 1484 1482 1479 1477 1475 1473 1471 1469 1467 1466 1464 1462 1461 1459 1457 1456 1455 1453 1452 1451 1449 1448 1447 1445 1443 1442 1442 1442
1514 1513 1511 1509 1508 1506 1504 1502 1500 1498 1496 1494 1491 1489 1487 1484 1482 1480 1478 1475 1473 1471 1470 1468 1466 1464 1463 1461 1460 1458 1456 1455 1454 1452 1451 1450 1449 1447 1446 1445 1443 1442 1440 1440
1511 1510 1508 1507 1505 1503 1501 1499 1497 1495 1493 1491 1489 1486 1484 1482 1480 1478 1476 1474 1471 1469 1468 1466 1465 1463 1462 1460 1458 1457 1455 1454 1453 1451 1450 1449 1448 1446 1445 1444 1442 1441 1440 1439
1508 1506 1505 1503 1502 1500 1499 1497 1495 1493 1490 1488 1486 1484 1482 1480 1478 1475 1474 1472 1470 1468 1466 1465 1463 1462 1460 1459 1457 1455 1454 1453 1451 1450 1449 1448 1447 1445 1444 1443 1441 1440 1439 1438
1506 1505 1503 1501 1500 1498 1496 1494 1492 1490 1487 1485 1483 1481 1479 1477 1475 1473 1472 1470 1468 1467 1465 1463 1462 1460 1458 1457 1455 1454 1453 1451 1450 1449 1448 1446 1445 1444 1443 1441 1440 1439 1438 1437
1503 1502 1500 1499 1497 1495 1494 1492 1489 1487 1484 1482 1480 1478 1477 1475 1473 1471 1470 1468 1466 1464 1463 1462 1460 1458 1457 1455 1454 1452 1451 1450 1449 1447 1446 1445 1444 1442 1441 1440 1439 1438 1437 1436
1501 1499 1498 1496 1495 1493 1491 1489 1487 1485 1482 1480 1478 1476 1475 1473 1471 1470 1468 1466 1465 1463 1461 1460 1458 1457 1455 1454 1452 1451 1450 1448 1447 1446 1445 1443 1442 1441 1439 1438 1437 1436 1435 1434
1498 1497 1495 1494 1492 1491 1489 1487 1485 1482 1481 1479 1476 1474 1473 1471 1470 1468 1466 1464 1463 1461 1460 1458 1456 1455 1453 1452 1451 1449 1448 1447 1446 1444 1443 1441 1440 1439 1438 1437 1435 1434 1433 1432
1496 1494 1493 1491 1490 1488 1486 1485 1482 1480 1479 1477 1475 1473 1471 1469 1468 1466 1464 1463 1461 1459 1458 1456 1454 1453 1452 1450 1449 1448 1446 1445 1444 1442 1441 1439 1438 1437 1436 1435 1434 1432 1431 1431
1494 1492 1491 1489 1487 1486 1484 1482 1480 1479 1477 1475 1473 1471 1469 1468 1466 1464 1462 1461 1459 1457 1456 1454 1453 1451 1450 1448 1447 1446 1444 1443 1442 1440 1439 1438 1436 1435 1434 1433 1432 1430 1429 1428
1491 1490 1488 1486 1485 1483 1481 1480 1478 1477 1475 1473 1471 1470 1468 1466 1464 1463 1461 1459 1457 1455 1454 1452 1451 1449 1448 1446 1445 1444 1442 1441 1440 1438 1437 1435 1434 1433 1432 1430 1429 1428 1427 1426
1488 1487 1485 1484 1482 1480 1479 1478 1476 1475 1473 1471 1470 1468 1466 1464 1462 1461 1459 1457 1455 1453 1452 1450 1449 1447 1446 1444 1443 1442 1440 1439 1438 1436 1435 1433 1432 1431 1429 1428 1427 1426 1424 1423
1485 1484 1483 1481 1480 1478 1477 1475 1474 1472 1470 1469 1467 1466 1464 1462 1460 1459 1457 1455 1454 1452 1450 1449 1447 1446 1444 1443 1441 1440 1438 1437 1436 1434 1433 1431 1430 1428 1427 1426 1424 1423 1422 1421
1483 1481 1480 1479 1477 1476 1474 1473 1471 1470 1468 1467 1465 1464 1462 1460 1458 1457 1455 1453 1452 1450 1448 1447 1445 1444 1442 1441 1439 1438 1436 1435 1433 1432 1430 1429 1427 1426 1424 1423 1422 1420 1419 1418